Hourly Data Report for May 21, 2012

All times are specified in Local Standard Time (LST). Add 1 hour to adjust for Daylight Saving Time where and when it is observed.

GANDER INTL A
NEWFOUNDLAND

48°56'13.000" N
54°34'05.000" W
151.20 m
8401703
71803
YQX

Related Data

No related data is available for this station

Download Data

Hourly Data (May 2012)
Hourly Data Report for May 21, 2012
Temp Definition
°C
Dew Point Temp Definition
°C
Rel Hum Definition
%
Wind Dir Definition
10's deg

Wind Spd Definition
km/h
Visibility Definition
km
Stn Press Definition
kPa
Hmdx Definition


Wind Chill Definition


Weather Definition


TIME
00:30 2.1 0.3 88 3 6 10.0 100.78     LegendNANA
01:30 2.2 0.3 87   0 10.0 100.82     LegendNANA
02:30 1.2 -0.1 91 34 8 10.0 100.86     Mostly Cloudy
03:30 1.1 -0.1 92 31 5 10.0 100.89     LegendNANA
04:30 1.6 0.3 91   0 10.0 100.89     LegendNANA
05:30 2.3 1.0 91   0 10.0 100.93     Mostly Cloudy
06:30 2.9 1.1 88 22 8 10.0 100.92     LegendNANA
07:30 4.9 2.1 82 26 13 10.0 100.93     LegendNANA
08:30 6.4 1.1 69 24 11 10.0 100.90     Mostly Cloudy
09:30 7.8 1.0 62 25 11 10.0 100.86     LegendNANA
10:30 9.3 1.3 57 23 13 10.0 100.78     LegendNANA
11:30 9.9 0.3 51 26 17 10.0 100.78     Mostly Cloudy
12:30 10.7 1.3 52 24 11 10.0 100.72     LegendNANA
13:30 10.5 1.1 52 24 13 10.0 100.70     LegendNANA
14:30 10.8 1.7 53 22 13 10.0 100.65     Cloudy
15:30 11.1 3.7 60 17 15 10.0 100.52     LegendNANA
16:30 12.4 3.1 53 17 19 10.0 100.37     LegendNANA
17:30 14.4 1.7 42 20 18 10.0 100.30     Mostly Cloudy
18:30 13.6 0.3 40 20 22 10.0 100.21     LegendNANA
19:30 12.6 1.3 46 19 16 10.0 100.21     LegendNANA
20:30 11.3 -0.2 45 20 21 10.0 100.18     Mainly Clear
21:30 10.5 0.8 51 22 23 10.0 100.13     LegendNANA
22:30 10.2 1.1 53 22 24 10.0 100.11     LegendNANA
23:30 9.9 1.3 55 22 18 10.0 100.09     Mostly Cloudy

Notes on Data Quality.

Legend

  • E = Estimated
  • M = Missing
  • NA = Not Available
Date modified: